Flag for Norway Weather past 2 weeks in Tromsø, Norway

Now
32 °F

Light snow. Overcast.


Feels Like: 24 °F
Forecast: 24 / 35 °F
Wind: 9 mph from North

Location: Tromso / Langnes

Current Time: Apr 28, 2015 at 2:58:56 PM

Latest Report: Apr 28, 2015 at 2:00 PM


Visibility: 18 mi

Pressure: 29.81 "Hg

Humidity: 65%

Dew point: 22 °F

Location of TromsøLocation

Historic Weather in Tromsø — Graph

°F

Tromsø temperature yesterday

Maximum temperature yesterday: 40 °F (at 3:00 PM)
Minimum temperature yesterday: 29 °F (at 4:00 AM)
Average temperature yesterday: 36 °F

Past Weeks' High & Low Weather Summary

 TemperatureHumidityPressure
High43 °F (Apr 16, 5:00 PM)94% (Apr 20, 7:00 AM)30.12 "Hg (Apr 20, 7:00 AM)
Low28 °F (Apr 26, 2:00 AM)36% (Apr 25, 2:00 PM)29.21 "Hg (Apr 23, 1:00 AM)
Average37 °F71%29.74 "Hg
* Reported Apr 13 1:00 PM — Apr 28 1:00 PM, Tromsø, Weather by CustomWeather, © 2015

Note: Actual official high and low records may vary slightly from our data, if they occured in-between our weather recording intervals... More about our weather records

Advertising

Tromsø weather history for previous 24 hours

 ConditionsComfort  
Time TempWeatherWind HumidityBarometerVisibility
1:00 PM
Tue, Apr 28
31 °FSnow flurries. Low clouds.9 mph82%29.80 "Hg2 mi
12:00 PM33 °FSprinkles. Overcast.9 mph73%29.78 "Hg19 mi
11:00 AM35 °FOvercast.7 mph62%29.76 "Hg19 mi
10:00 AM35 °FOvercast.9 mph70%29.74 "Hg28 mi
9:00 AM33 °FPassing clouds.8 mph72%29.72 "Hg22 mi
8:00 AM33 °FPartly sunny.7 mph74%29.70 "Hg31 mi
7:00 AM33 °FSnow flurries. Overcast.7 mph72%29.69 "Hg28 mi
6:00 AM33 °FOvercast.7 mph69%29.68 "Hg31 mi
4:00 AM33 °FOvercast.6 mph68%29.67 "Hg31 mi
3:00 AM33 °FOvercast.6 mph68%29.67 "Hg31 mi
2:00 AM34 °FOvercast.9 mph60%29.65 "Hg31 mi
1:00 AM34 °FOvercast.7 mph65%29.65 "Hg31 mi
12:00 AM34 °FOvercast.7 mph65%29.65 "Hg31 mi
10:00 PM
Mon, Apr 27
36 °FOvercast.7 mph61%29.64 "Hg28 mi
9:00 PM36 °FOvercast.7 mph62%29.64 "Hg31 mi
8:00 PM37 °FOvercast.6 mph58%29.64 "Hg25 mi
7:00 PM37 °FSunny.7 mph58%29.64 "Hg22 mi
6:00 PM38 °FSunny.7 mph55%29.64 "Hg18 mi
5:00 PM39 °FSunny.8 mph53%29.65 "Hg12 mi
4:00 PM39 °FSunny.7 mph53%29.65 "Hg19 mi
3:00 PM40 °FSunny.8 mph56%29.65 "Hg19 mi
2:00 PM40 °FSunny.8 mph54%29.65 "Hg19 mi
Weather by CustomWeather, © 2015

See weather overviewHow to use our weather pages